Location: Bismarck
(46.7731°N, 100.8200°W)
Time: 10:24:02
(UTC-05:00)

ISS - All Passes

Search period start: 31 July 2015 00:00
Search period end: 10 August 2015 00:00
Orbit: 401 x 403 km, 51.6° (Epoch: 31 July)

Date Brightness Start Highest point End Pass type
(mag) Time Alt. Az. Time Alt. Az. Time Alt. Az.
31 Jul - 00:28:43 10° W 00:31:55 54° NNW 00:35:09 10° ENE visible
31 Jul - 02:05:45 10° WNW 02:08:45 33° N 02:11:47 10° ENE visible
31 Jul - 03:42:19 10° WNW 03:45:34 60° NNE 03:48:48 10° ESE visible
31 Jul - 05:19:00 10° W 05:21:51 27° SW 05:24:39 10° SSE visible
31 Jul - 22:00:24 10° S 22:02:46 19° SE 22:05:10 10° E visible
31 Jul - 23:35:37 10° WSW 23:38:53 79° NNW 23:42:10 10° ENE visible
01 Aug - 01:12:35 10° WNW 01:15:37 34° N 01:18:39 10° ENE visible
01 Aug - 02:49:20 10° WNW 02:52:30 44° NNE 02:55:39 10° E visible
01 Aug - 04:25:49 10° WNW 04:28:58 46° SW 04:32:07 10° SE visible
01 Aug - 21:09:14 10° SSE 21:09:59 11° SE 21:10:51 10° ESE daylight
01 Aug - 22:42:41 10° SW 22:45:54 64° SSE 22:49:09 10° ENE visible
02 Aug - 00:19:23 10° W 00:22:29 39° N 00:25:35 10° ENE visible
02 Aug - 01:56:19 10° WNW 01:59:22 36° N 02:02:27 10° ENE visible
02 Aug - 03:32:45 10° WNW 03:36:02 79° SSW 03:39:17 10° ESE night (unlit)
02 Aug - 05:10:16 10° WSW 05:12:02 14° SW 05:13:43 10° SSW visible
02 Aug - 21:49:57 10° SSW 21:52:59 37° SE 21:56:02 10° ENE visible
02 Aug - 23:26:11 10° W 23:29:22 49° NNW 23:32:34 10° ENE visible
03 Aug - 01:03:13 10° WNW 01:06:14 33° N 01:09:15 10° ENE visible
03 Aug - 02:39:44 10° WNW 02:43:00 67° NNE 02:46:16 10° ESE visible
03 Aug - 04:16:32 10° W 04:19:13 23° SW 04:21:53 10° SSE night (unlit)
03 Aug - 20:57:33 10° SSW 21:00:07 22° SE 21:02:42 10° E daylight
03 Aug - 22:33:03 10° WSW 22:36:18 71° NNW 22:39:34 10° ENE visible
04 Aug - 00:10:02 10° WNW 00:13:03 33° N 00:16:05 10° ENE visible
04 Aug - 01:46:44 10° WNW 01:49:56 47° NNE 01:53:06 10° E visible
04 Aug - 03:23:14 10° WNW 03:26:20 40° SW 03:29:25 10° SE night (unlit)
04 Aug - 20:05:51 10° SSE 20:07:17 13° SE 20:08:50 10° ESE daylight
04 Aug - 21:40:01 10° SW 21:43:16 74° SSE 21:46:32 10° ENE visible
04 Aug - 23:16:49 10° W 23:19:53 37° N 23:22:58 10° ENE visible
05 Aug - 00:53:42 10° WNW 00:56:47 38° N 00:59:53 10° E visible
05 Aug - 02:30:08 10° WNW 02:33:23 69° SSW 02:36:38 10° SE visible
05 Aug - 04:08:03 10° WSW 04:09:20 12° SW 04:10:30 10° SSW night (unlit)
05 Aug - 20:47:12 10° SW 20:50:18 43° SE 20:53:25 10° ENE daylight
05 Aug - 22:23:34 10° W 22:26:44 46° NNW 22:29:54 10° ENE visible
06 Aug - 00:00:35 10° WNW 00:03:37 34° N 00:06:38 10° ENE visible
06 Aug - 01:37:05 10° WNW 01:40:21 75° NNE 01:43:37 10° ESE visible
06 Aug - 03:13:59 10° W 03:16:31 20° SW 03:18:59 10° S night (unlit)
06 Aug - 19:54:40 10° SSW 19:57:23 25° SE 20:00:09 10° E daylight
06 Aug - 21:30:23 10° WSW 21:33:37 64° NNW 21:36:53 10° ENE daylight
06 Aug - 23:07:24 10° WNW 23:10:25 33° N 23:13:26 10° ENE visible
07 Aug - 00:44:03 10° WNW 00:47:15 51° NNE 00:50:28 10° E visible
07 Aug - 02:20:36 10° WNW 02:23:37 34° SW 02:26:37 10° SSE night (unlit)
07 Aug - 19:02:40 10° S 19:04:31 15° SE 19:06:28 10° E daylight
07 Aug - 20:37:18 10° WSW 20:40:34 84° SSE 20:43:50 10° ENE daylight
07 Aug - 22:14:10 10° WNW 22:17:13 36° N 22:20:17 10° ENE visible
07 Aug - 23:50:59 10° WNW 23:54:06 40° NNE 23:57:13 10° E visible
08 Aug - 01:27:26 10° WNW 01:30:40 60° SSW 01:33:52 10° SE visible
08 Aug - 19:44:23 10° SW 19:47:33 50° SSE 19:50:43 10° ENE daylight
08 Aug - 21:20:54 10° W 21:24:02 43° NNW 21:27:10 10° ENE daylight
08 Aug - 22:57:52 10° WNW 23:00:55 34° N 23:03:57 10° ENE visible
09 Aug - 00:34:21 10° WNW 00:37:37 84° NNE 00:40:53 10° ESE visible
09 Aug - 02:11:25 10° W 02:13:43 18° SW 02:15:58 10° S night (unlit)
09 Aug - 18:51:44 10° SSW 18:54:35 29° SE 18:57:28 10° E daylight
09 Aug - 20:27:39 10° W 20:30:53 58° NNW 20:34:07 10° ENE daylight
09 Aug - 22:04:41 10° WNW 22:07:42 33° N 22:10:42 10° ENE visible
09 Aug - 23:41:17 10° WNW 23:44:30 56° NNE 23:47:44 10° E visible
